Rome, GA

12:31 PM EST on November 18, 2019 (GMT -0500)
Russell

Weather History for KRMG - September, 2019

Change the Weather History Date:

Friday, September 27, 2019

  Actual Average Record
Temperature  
Mean Temperature 83 °F 68 °F  
Max Temperature 98 °F 80 °F 92 °F (2017)
Min Temperature 68 °F 56 °F 42 °F (2001)
Degree Days  
Heating Degree Days 0 1  
Month to date heating degree days 0 8  
Since 1 July heating degree days 0 8  
Cooling Degree Days 18 4  
Month to date cooling degree days 403 212  
Year to date cooling degree days 2162 1578  
Growing Degree Days 33 (Base 50)    
Moisture  
Dew Point 68 °F    
Average Humidity 73    
Maximum Humidity 91    
Minimum Humidity 33    
Precipitation  
Precipitation 0.20 in 0.13 in 1.68 in (2018)
Month to date precipitation 0.20 2.98  
Year to date precipitation 42.65 38.40  
Sea Level Pressure  
Sea Level Pressure 29.95 in    
Wind  
Wind Speed 2 mph ()    
Max Wind Speed 13 mph    
Max Gust Speed 15 mph    
Visibility 9.8 miles    
Events Rain , Thunderstorm    
T = Trace of Precipitation, MM = Missing Value Source: Averaged Metar Reports

Daily Weather History Graph

Daily Weather History Graph

Search for Another Location

Airport or City:

Astronomy

Sep. 27, 2019 Rise Set
Actual Time 7:32 AM EDT 7:30 PM EDT
Civil Twilight 7:07 AM EDT 7:55 PM EDT
Nautical Twilight 6:37 AM EDT 8:24 PM EDT
Astronomical Twilight 6:08 AM EDT 8:54 PM EDT
Moon 6:00 AM EDT (9/27) 7:15 PM EDT (9/27)
Length of Visible Light 12h 48m
Length of Day
11h 58m
Waning Crescent, 2% of the Moon is Illuminated
Sep 27
Waning Crescent
Sep 28
New
Oct 5
First Quarter
Oct 13
Full
Oct 21
Last Quarter

Hourly Weather History & Observations

Time (EDT) Temp. Heat Index Dew Point Humidity Pressure Visibility Wind Dir Wind Speed Gust Speed Precip Events Conditions
12:53 AM 72.0 °F - 66.9 °F 84% 29.92 in 10.0 mi Calm Calm - N/A   Clear
1:53 AM 72.0 °F - 66.9 °F 84% 29.92 in 10.0 mi Calm Calm - N/A   Clear
2:53 AM 71.1 °F - 66.0 °F 84% 29.92 in 10.0 mi Calm Calm - N/A   Clear
3:53 AM 69.1 °F - 64.9 °F 87% 29.91 in 10.0 mi Calm Calm - N/A   Clear
4:53 AM 70.0 °F - 66.0 °F 87% 29.92 in 10.0 mi NNE 3.5 mph - N/A   Clear
5:53 AM 68.0 °F - 64.9 °F 90% 29.94 in 10.0 mi NE 3.5 mph - N/A   Clear
6:53 AM 68.0 °F - 64.9 °F 90% 29.96 in 10.0 mi NE 3.5 mph - N/A   Clear
7:53 AM 68.0 °F - 64.9 °F 90% 29.98 in 10.0 mi North 3.5 mph - N/A   Clear
8:53 AM 72.0 °F - 66.9 °F 84% 30.00 in 10.0 mi Calm Calm - N/A   Partly Cloudy
9:53 AM 77.0 °F - 68.0 °F 74% 30.01 in 10.0 mi Calm Calm - N/A   Clear
10:53 AM 82.9 °F 85.8 °F 68.0 °F 60% 30.00 in 10.0 mi ENE 3.5 mph - N/A   Clear
11:53 AM 88.0 °F 92.1 °F 69.1 °F 53% 29.99 in 10.0 mi Variable 3.5 mph - N/A   Clear
12:53 PM 93.0 °F 96.4 °F 66.9 °F 42% 29.97 in 10.0 mi Calm Calm - N/A   Clear
1:53 PM 93.9 °F 95.6 °F 64.0 °F 37% 29.95 in 10.0 mi North - - N/A   Clear
2:53 PM 96.1 °F 97.3 °F 63.0 °F 33% 29.91 in 10.0 mi Variable 3.5 mph - N/A   Clear
3:53 PM 95.0 °F 97.0 °F 64.0 °F 36% 29.90 in 10.0 mi East 5.8 mph - N/A   Mostly Cloudy
4:53 PM 93.9 °F 95.2 °F 63.0 °F 36% 29.88 in 10.0 mi SSW 3.5 mph - N/A   Mostly Cloudy
5:53 PM 80.1 °F 83.6 °F 71.1 °F 74% 29.91 in 3.0 mi West 11.5 mph - 0.02 in Rain , Thunderstorm Heavy Thunderstorms and Rain
6:28 PM 79.0 °F - 73.9 °F 84% 29.94 in 10.0 mi Calm Calm - 0.11 in Thunderstorm Mostly Cloudy
6:40 PM 80.6 °F 85.4 °F 73.4 °F 79% 29.94 in 10.0 mi Calm Calm - N/A   Scattered Clouds
6:53 PM 79.0 °F - 73.0 °F 82% 29.91 in 10.0 mi Calm Calm - 0.11 in   Clear
7:53 PM 78.1 °F - 72.0 °F 81% 29.93 in 10.0 mi Calm Calm - N/A   Scattered Clouds
8:53 PM 77.0 °F - 72.0 °F 84% 29.94 in 10.0 mi North 5.8 mph - N/A   Clear
9:45 PM 77.0 °F - 70.0 °F 79% 29.97 in 10.0 mi NE 5.8 mph - N/A Thunderstorm Mostly Cloudy
9:53 PM 77.0 °F - 70.0 °F 79% 29.95 in 10.0 mi NE 3.5 mph - N/A Thunderstorm Overcast
10:53 PM 75.0 °F - 71.1 °F 87% 29.97 in 10.0 mi NNW 8.1 mph - 0.06 in Rain , Thunderstorm Light Rain
11:10 PM 73.9 °F - 71.1 °F 91% 30.02 in 10.0 mi NE 5.8 mph - 0.00 in   Partly Cloudy
11:53 PM 75.0 °F - 71.1 °F 87% 30.00 in 10.0 mi NW 3.5 mph - 0.00 in Thunderstorm Mostly Cloudy